This is the latest recevied weather packets stored in our database for station/object W6SNO-1. If no packets are shown the sender has not sent any weather packets the latest 10 day(s).
| Time | Temp. | Humidity | Pressure | Rain* | Wind** | Luminosity | Snow |
|---|---|---|---|---|---|---|---|
| 1787423598 | 22.78° C | 61% | 1018.5 hPa | 0 mm | - | 687 W/m² | - |
| 1787423292 | 22.78° C | 61% | 1018.4 hPa | 0 mm | - | 687 W/m² | - |
| 1787422988 | 22.22° C | 62% | 1018.4 hPa | 0 mm | - | 676 W/m² | - |
| 1787422684 | 21.67° C | 62% | 1018.3 hPa | 0 mm | - | 666 W/m² | - |
| 1787421467 | 21.11° C | 64% | 1018.6 hPa | 0 mm | - | 614 W/m² | - |
| 1787421163 | 21.11° C | 64% | 1018.5 hPa | 0 mm | - | 614 W/m² | - |
| 1787420857 | 20.56° C | 67% | 1018.6 hPa | 0 mm | - | 588 W/m² | - |
| 1787420554 | 20.56° C | 67% | 1018.5 hPa | 0 mm | - | 588 W/m² | - |
| 1787420250 | 20.56° C | 67% | 1018.7 hPa | 0 mm | - | 583 W/m² | - |
| 1787419946 | 20.56° C | 68% | 1019 hPa | 0 mm | - | 565 W/m² | - |
| 1787419643 | 20° C | 70% | 1018.6 hPa | 0 mm | - | 531 W/m² | - |
| 1787419342 | 20° C | 70% | 1018.8 hPa | 0 mm | - | 531 W/m² | - |
| 1787419039 | 20° C | 70% | 1018.9 hPa | 0 mm | - | 526 W/m² | - |
| 1787418738 | 19.44° C | 71% | 1018.7 hPa | 0 mm | - | 520 W/m² | - |
| 1787418435 | 19.44° C | 72% | 1018.7 hPa | 0 mm | - | 502 W/m² | - |
| 1787418131 | 18.89° C | 74% | 1018.4 hPa | 0 mm | - | 485 W/m² | - |
| 1787417826 | 17.78° C | 78% | 1018.6 hPa | 0 mm | - | 451 W/m² | - |
| 1787417521 | 17.78° C | 78% | 1018.7 hPa | 0 mm | - | 451 W/m² | - |
| 1787416608 | 17.22° C | 81% | 1018.5 hPa | 0 mm | - | 37 W/m² | - |
| 1787416303 | 17.22° C | 81% | 1018.6 hPa | 0 mm | - | 37 W/m² | - |
| 1787416003 | 17.22° C | 81% | 1018.5 hPa | 0 mm | - | 36 W/m² | - |
| 1787415698 | 16.67° C | 81% | 1018.4 hPa | 0 mm | - | 35 W/m² | - |
| 1787415398 | 16.67° C | 83% | 1018.3 hPa | 0 mm | - | 33 W/m² | - |
| 1787415093 | 16.67° C | 83% | 1018.6 hPa | 0 mm | - | 33 W/m² | - |
| 1787414790 | 16.11° C | 84% | 1018.3 hPa | 0 mm | - | 32 W/m² | - |
* Rain latest hour (hover to see other rain measurements)
** Current wind speed in m/s (hover to see current wind gust speed)